sat.trackr.live / text

‹ back to catalog

STARLINK-4035

NORAD 52690 · 2022-053AL

PAYLOAD ACTIVE UNKNOWN

§ Identity

Operator
Country
US
Launch date
2022-05-18
Launch site
AFETR
Launch vehicle
Mass (kg)
RCS (m²)

Purposes: comms

External: N2YO · Heavens-Above · Gunter

§ Orbital elements

Epoch: 2026-05-25T00:59:18.784896Z

Period
95.44 min
Inclination
53.2150°
Eccentricity
0.0001129
Mean motion
15.08836899 rev/d
Perigee alt
539.0 km
Apogee alt
540.5 km
Semi-major
6,917.9 km
B*
2.5856e-5
RAAN
161.3634°
Arg perigee
77.3054°
Mean anomaly
282.8065°
Rev number
22,264

§ Raw data

STARLINK-40351 52690U 22053AL  26145.04118964  .00000124  00000+0  25856-4 0  99912 52690  53.2150 161.3634 0001129  77.3054 282.8065 15.08836899222647

JSON: /api/v1/satellites/52690 · /tle

For live sub-satellite position, see the globe view (requires WebGL).

§ Visibility from observer

Set your observer location to see the next 7 days of passes ≥ 10°. The values pass through the URL so the page stays shareable.

No JS? Fill the form by hand. The geolocation button needs JavaScript.